This is the latest recevied weather packets stored in our database for station/object KG7FOQ-13. If no packets are shown the sender has not sent any weather packets the latest 10 day(s).
| Time | Temp. | Humidity | Pressure | Rain* | Wind** | Luminosity | Snow |
|---|---|---|---|---|---|---|---|
| 1777810579 | 7.78° C | 48% | 1014.5 hPa | 0 mm | - | - | - |
| 1777810278 | 7.78° C | 48% | 1014.4 hPa | 0 mm | - | - | - |
| 1777809978 | 8.33° C | 47% | 1014.4 hPa | 0 mm | - | - | - |
| 1777809677 | 8.89° C | 46% | 1014.4 hPa | 0 mm | - | - | - |
| 1777809076 | 8.89° C | 46% | 1014.5 hPa | 0 mm | - | - | - |
| 1777808776 | 8.89° C | 43% | 1014.5 hPa | 0 mm | - | - | - |
| 1777808522 | 8.89° C | 43% | 1014.8 hPa | 0 mm | - | - | - |
| 1777808475 | 8.89° C | 43% | 1014.8 hPa | 0 mm | - | - | - |
| 1777808176 | 8.89° C | 45% | 1014.7 hPa | 0 mm | - | - | - |
| 1777807874 | 9.44° C | 43% | 1014.7 hPa | 0 mm | - | - | - |
| 1777807574 | 9.44° C | 42% | 1014.7 hPa | 0 mm | - | - | - |
| 1777807273 | 10° C | 42% | 1014.8 hPa | 0 mm | - | - | - |
| 1777806973 | 10° C | 42% | 1014.9 hPa | 0 mm | - | - | - |
| 1777806672 | 10° C | 43% | 1014.8 hPa | 0 mm | - | - | - |
| 1777806372 | 10° C | 42% | 1014.9 hPa | 0 mm | - | - | - |
| 1777806071 | 10° C | 41% | 1014.8 hPa | 0 mm | - | - | - |
| 1777805771 | 10.56° C | 40% | 1014.8 hPa | 0 mm | - | - | - |
| 1777805470 | 11.11° C | 39% | 1014.8 hPa | 0 mm | - | - | - |
| 1777805170 | 11.67° C | 37% | 1014.8 hPa | 0 mm | - | - | - |
| 1777804869 | 11.67° C | 35% | 1014.8 hPa | 0 mm | - | - | - |
| 1777804568 | 11.67° C | 34% | 1014.9 hPa | 0 mm | - | - | - |
| 1777804332 | 11.11° C | 37% | 1014.9 hPa | 0 mm | - | - | - |
| 1777804268 | 11.11° C | 37% | 1014.9 hPa | 0 mm | - | - | - |
| 1777803966 | 11.11° C | 39% | 1014.8 hPa | 0 mm | - | - | - |
| 1777803665 | 11.11° C | 38% | 1014.7 hPa | 0 mm | - | - | - |
* Rain latest hour (hover to see other rain measurements)
** Current wind speed in m/s (hover to see current wind gust speed)